Location: Pardubice
(50.0330°N, 15.7830°E)
Time: 18:21:14
(UTC+01:00)

ISS - Visible Passes

Search period start: 30 November 2023 00:00
Search period end: 10 December 2023 00:00
Orbit: 416 x 417 km, 51.6° (Epoch: 30 November)

Date Brightness Start Highest point End Pass type
(mag) Time Alt. Az. Time Alt. Az. Time Alt. Az.
30 Nov -3.8 17:29:42 10° WNW 17:33:05 88° NNE 17:34:45 27° ESE visible
30 Nov -0.7 19:06:41 10° W 19:07:40 16° W 19:07:40 16° W visible
01 Dec -3.8 16:41:17 10° WNW 16:44:39 74° N 16:48:00 10° E visible
01 Dec -2.6 18:18:07 10° W 18:21:17 38° SSW 18:21:29 38° SSW visible
02 Dec -3.2 17:29:36 10° WNW 17:32:54 55° SSW 17:35:24 16° SE visible
02 Dec -0.5 19:07:28 10° WSW 19:08:19 12° WSW 19:08:19 12° WSW visible
03 Dec -3.6 16:41:03 10° WNW 16:44:25 75° SSW 16:47:46 10° ESE visible
03 Dec -1.3 18:18:17 10° W 18:20:46 19° SW 18:22:23 14° S visible
04 Dec -1.8 17:29:25 10° W 17:32:21 28° SW 17:35:16 10° SSE visible
05 Dec -2.4 16:40:39 10° W 16:43:50 41° SSW 16:47:00 10° SE visible
06 Dec -0.6 17:29:37 10° WSW 17:31:25 14° SW 17:33:12 10° S visible
07 Dec -0.8 16:40:19 10° W 16:42:53 21° SW 16:45:27 10° SSE visible
